Location: Grandview
(34.8900°N, 117.1058°W)
Time: 22:30:42
(UTC-07:00)

Tiangong 2 - Pass Details

Date: 07 October 2017
Orbit: 388 x 392 km, 42.8° (Epoch: 18 October)

Event Time Altitude Azimuth Distance (km) Brightness Sun altitude
Exits shadow 05:17:43 27° 176° (S) 784 2.5 -19.3°
Maximum altitude 05:18:32 31° 145° (SE) 702 2.6 -19.2°
Drops below altitude 10° 05:21:26 10° 80° (E) 1,419 5.2 -18.6°
Sets 05:23:38 0° 70° (ENE) 2,277 6.5 -18.1°
